This demonstration page uses our WeatherBlox Daily Observations layout. Learn more.

38.88101, -77.10428

Hourly Observations for August 11, 2020

Temp ( °F °C ) Dew Point ( °F °C ) Humidity (%) Winds ( mph kmh ) Pressure ( in mb ) Visibility ( mi km ) Precip ( " mm )
12:52 am 00:52 Partly Cloudy 79 26.1 75 23.9 88 88 SSE 3 6 29.99 1016 10 16.0934 0 0
1:52 am 01:52 Partly Cloudy 79 26.1 75 23.9 88 88 SSE 5 7 29.98 1015 10 16.0934 0 0
2:52 am 02:52 Mostly Clear 78 25.6 75 23.9 90 90 S 6 9 29.97 1015 10 16.0934 0 0
3:52 am 03:52 Mostly Clear 78 25.6 74 23.3 87 87 S 6 9 29.95 1014 10 16.0934 0 0
4:52 am 04:52 Mostly Clear 77 25 74 23.3 90 90 S 7 11 29.95 1014 10 16.0934 0 0
5:52 am 05:52 Mostly Cloudy 77 25 73 22.8 88 88 SSW 6 9 29.96 1015 10 16.0934 0 0
6:52 am 06:52 Mostly Cloudy 77 25 73 22.8 88 88 SSE 6 9 29.96 1015 10 16.0934 0 0
7:52 am 07:52 Mostly Cloudy 78 25.6 74 23.3 87 87 S 8 13 29.96 1015 10 16.0934 0 0
7:59 am 07:59 Mostly Sunny 78 25.6 74 23.3 87 87 S 8 13 29.97 1015 10 16.0934 0 0
8:52 am 08:52 Partly Cloudy 79 26.1 74 23.3 85 85 SSE 7 11 29.98 1015 10 16.0934 0 0
9:52 am 09:52 Partly Cloudy 81 27.2 75 23.9 82 82 S 8 13 29.98 1015 10 16.0934 0 0
10:52 am 10:52 Partly Cloudy 83 28.3 75 23.9 77 77 S 10 17 29.99 1016 10 16.0934 0 0
11:52 am 11:52 Mostly Sunny 85 29.4 76 24.4 75 75 SSE 8 13 29.99 1016 10 16.0934 0 0
12:52 pm 12:52 Mostly Sunny 88 31.1 76 24.4 68 68 SSE 9 15 29.97 1015 10 16.0934 0 0
1:52 pm 13:52 Partly Cloudy 89 31.7 76 24.4 65 65 S 12 19 29.95 1014 10 16.0934 0 0
2:52 pm 14:52 Partly Cloudy 89 31.7 76 24.4 65 65 SSE 12 19 29.93 1014 10 16.0934 0 0
3:52 pm 15:52 Mostly Cloudy 90 32.2 75 23.9 62 62 SSE 12 19 29.92 1013 10 16.0934 0 0
4:52 pm 16:52 Partly Cloudy 89 31.7 73 22.8 59 59 SSW 12 19 29.92 1013 10 16.0934 0 0
5:52 pm 17:52 Mostly Cloudy 89 31.7 75 23.9 63 63 S 9 15 29.92 1013 10 16.0934 0 0
6:52 pm 18:52 Partly Cloudy 88 31.1 75 23.9 66 66 S 13 20 29.91 1013 10 16.0934 0 0
7:52 pm 19:52 Mostly Cloudy 87 30.6 76 24.4 70 70 S 7 11 29.93 1013 10 16.0934 0 0
8:52 pm 20:52 Clear 85 29.4 76 24.4 75 75 S 7 11 29.93 1014 10 16.0934 0 0
9:52 pm 21:52 Mostly Clear 84 28.9 76 24.4 77 77 S 8 13 29.95 1014 10 16.0934 0 0
10:52 pm 22:52 Mostly Cloudy 83 28.3 75 23.9 77 77 S 7 11 29.96 1014 10 16.0934 0 0
11:52 pm 23:52 Mostly Cloudy 82 27.8 76 24.4 82 82 SSW 6 9 29.96 1015 10 16.0934 0 0

Powered by AerisWeather